Vertical_Velocity
-3 -1 -1 0 0 -1 0 -1 0 -1 -3 0 -1 0 1 0 -2 0 -1 -0 0 -0 1 -1 -0 1 0 0 -1 2 1 -0 -2
-3 -0 -2 -1 -0 2 -0 -2 0 1 -1 -1 -1 -1 -0 -0 -1 1 0 0 -0 -1 0 1 1 1 0 0 -0 -0 -0 1 -1
0 -2 -2 -0 -1 -2 -1 0 1 1 1 1 1 -0 1 0 -2 0 -1 0 1 1 -0 -1 -0 1 -1 -1 1 -0 -0 1 -2
1 -2 -2 2 2 -0 0 -1 -1 -1 -0 -1 -0 -2 -0 -0 -3 -1 -3 -2 -1 -1 -0 -1 -1 -1 -1 -0 0 -1 -0 -0 -1
-2 -3 1 -1 3 -1 1 0 0 -1 -1 -1 0 -1 0 0 -1 -0 -2 -2 -2 -1 -2 -2 -1 -1 -1 -0 -0 -0 -1 -0 -1
0 -0 2 -1 2 1 0 -0 -0 -0 -1 -0 0 1 0 0 -1 1 -1 -1 -1 -2 -0 -0 -0 -1 1 0 1 -1 1 -1 -0
-1 -1 5 -1 -0 1 1 0 1 0 1 0 1 1 1 0 0 1 0 1 1 0 1 2 -1 0 -2 -1 -1 -1 2 1 -1
0 -1 2 -0 0 2 1 1 1 -0 0 -1 0 0 -1 -0 0 0 1 2 2 2 2 -0 2 1 -0 -2 -1 1 -1 -0 -0
2 1 1 -1 -1 0 -1 -0 0 0 -0 1 2 1 1 -1 -1 -0 0 -0 -0 1 1 -0 1 2 0 -1 1 2 -2 0 2
2 5 2 2 -1 -0 -0 1 2 2 1 0 2 1 -0 -1 -1 -0 -2 -2 -2 -1 -0 -2 2 1 1 1 -2 2 -1 -0 -2
1 3 -0 -1 -1 -2 -1 -1 -1 -1 -1 -0 0 -0 -2 -1 -0 -2 -2 -3 -2 -0 -1 0 -2 0 -0 -1 -1 -1 -3 -0 1
-0 0 -1 -0 -4 -3 -3 -1 -0 -1 -2 -1 0 0 -1 -1 -2 -2 -2 -2 -1 -2 -1 -2 -2 -1 1 -2 -2 3 1 0 -1
1 -1 -0 1 -3 -4 -0 -1 -3 -1 -1 1 0 -1 -2 -1 0 0 -1 -0 -0 -1 -1 -0 -1 -0 -2 -1 -0 -1 -1 -1 -0
1 1 1 2 -1 -1 -1 -1 -2 -1 1 -0 1 -1 0 1 0 -0 -0 -0 -0 -0 0 -0 -1 -1 -2 0 -1 -1 -0 0 1
-1 0 -0 0 -1 -1 -1 -2 -4 -4 -2 -2 0 -1 0 1 -2 -1 -1 -1 -2 -1 -0 0 0 -2 -2 -3 -2 -3 -2 -2 -2
-0 -0 0 -1 -3 -2 -1 -0 1 -4 -2 -2 4 -1 1 4 2 2 3 3 -1 -2 -2 -1 -1 2 1 -1 -1 -1 -1 -2 -1
1 -1 0 -1 -3 -1 -2 -1 -2 -2 -3 -3 -4 -4 12 5 -0 -1 1 3 4 3 2 2 0 1 1 0 0 1 -0 -0 -1
-1 -1 1 -0 -2 -1 -0 -0 -0 0 -1 -4 -2 -9 -5 -7 7 7 4 1 3 3 1 2 0 -0 -1 -1 -0 -1 -2 -1 -0
-0 1 2 -1 0 -1 -1 -2 -2 -2 -2 1 -2 -3 -6 -13 -17 4 2 -1 1 2 4 1 1 -0 -1 -1 -2 -1 -1 -0 -1
1 1 -0 1 -1 -1 -0 -4 -3 -2 -1 -2 -0 4 3 1 -9 -14 -2 6 0 -1 -2 -0 -1 -0 -3 -1 -1 -1 -1 -0 0
Height
3130 3129 3129 3129 3128 3128 3128 3128 3127 3127 3127 3126 3125 3124 3122 3121 3120 3119 3118 3117 3116 3116 3115 3114 3113 3113 3112 3112 3112 3111 3112 3113 3112
3128 3128 3128 3127 3127 3126 3126 3126 3125 3125 3124 3124 3122 3121 3120 3119 3117 3116 3115 3114 3113 3112 3111 3111 3110 3110 3108 3108 3108 3107 3108 3108 3108
3128 3128 3127 3126 3126 3125 3125 3124 3123 3123 3122 3121 3120 3119 3118 3117 3115 3114 3112 3112 3111 3110 3109 3108 3107 3106 3105 3104 3104 3103 3103 3104 3104
3128 3127 3126 3126 3125 3124 3124 3123 3122 3122 3121 3120 3120 3118 3117 3116 3114 3112 3110 3109 3108 3107 3106 3105 3104 3103 3103 3101 3101 3100 3100 3100 3100
3127 3126 3125 3125 3124 3123 3122 3121 3121 3120 3119 3118 3118 3116 3115 3113 3111 3110 3108 3106 3104 3103 3102 3101 3100 3100 3099 3098 3097 3097 3096 3095 3095
3125 3124 3124 3123 3123 3122 3121 3120 3119 3118 3117 3115 3114 3112 3111 3109 3107 3106 3104 3102 3101 3100 3099 3097 3096 3095 3095 3094 3093 3092 3091 3090 3089
3124 3123 3122 3121 3121 3120 3119 3118 3116 3115 3114 3113 3111 3109 3107 3105 3103 3102 3100 3098 3097 3096 3095 3095 3093 3091 3090 3089 3088 3087 3086 3085 3084
3123 3121 3121 3119 3119 3117 3116 3115 3113 3112 3111 3110 3108 3106 3104 3101 3099 3098 3096 3095 3093 3092 3091 3089 3088 3086 3085 3083 3083 3082 3081 3079 3080
3121 3119 3118 3117 3116 3115 3113 3112 3111 3109 3108 3106 3105 3102 3100 3097 3095 3093 3091 3089 3087 3086 3084 3083 3082 3081 3079 3077 3076 3075 3072 3072 3071
3119 3117 3115 3114 3113 3112 3110 3108 3107 3106 3104 3102 3100 3097 3094 3091 3089 3087 3085 3082 3080 3078 3076 3074 3074 3072 3070 3069 3066 3065 3064 3063 3062
3115 3113 3111 3110 3109 3108 3106 3105 3103 3101 3100 3097 3094 3091 3089 3086 3084 3081 3079 3076 3073 3071 3068 3067 3064 3063 3061 3059 3057 3056 3054 3053 3052
3112 3110 3108 3106 3105 3103 3102 3100 3098 3096 3094 3092 3089 3086 3082 3080 3077 3074 3071 3069 3066 3064 3061 3058 3056 3053 3051 3049 3047 3046 3045 3043 3042
3108 3106 3104 3102 3100 3099 3097 3095 3093 3091 3089 3087 3083 3079 3076 3073 3070 3067 3064 3061 3058 3056 3053 3051 3048 3045 3042 3040 3039 3037 3035 3033 3031
3102 3101 3100 3098 3097 3095 3093 3090 3087 3085 3082 3079 3076 3072 3070 3067 3063 3060 3057 3054 3051 3048 3045 3042 3039 3036 3033 3031 3028 3026 3024 3022 3021
3099 3098 3096 3094 3092 3090 3087 3084 3080 3078 3076 3073 3070 3066 3063 3060 3056 3053 3050 3047 3043 3040 3037 3034 3031 3028 3024 3021 3019 3015 3013 3010 3008
3095 3094 3092 3090 3088 3085 3083 3079 3075 3071 3067 3065 3063 3059 3055 3053 3050 3047 3044 3040 3037 3033 3029 3026 3022 3020 3015 3011 3008 3004 3001 2997 2994
3092 3091 3088 3086 3083 3080 3077 3073 3068 3063 3060 3056 3053 3051 3051 3046 3042 3040 3037 3033 3030 3026 3021 3017 3013 3008 3005 3001 2996 2992 2988 2984 2980
3089 3087 3085 3082 3078 3075 3070 3066 3062 3057 3052 3047 3044 3039 3036 3033 3035 3032 3029 3024 3021 3017 3012 3008 3002 2996 2991 2986 2982 2978 2972 2967 2964
3086 3083 3080 3077 3073 3068 3064 3060 3055 3050 3046 3042 3037 3032 3026 3020 3015 3021 3019 3014 3009 3005 3000 2996 2990 2984 2977 2971 2965 2961 2956 2952 2948
3082 3079 3076 3071 3067 3062 3057 3053 3048 3044 3039 3035 3031 3027 3021 3015 3005 2996 3000 3002 2998 2993 2986 2979 2973 2967 2960 2953 2947 2942 2937 2933 2929